Regional Weather Roundup
Issued by NWS Kansas City/Pleasant Hill, MO

Home | Current Version | Previous Version | Text Only | Print | Product List | Glossary On
Versions: 1 2 3 4 5 6 7 8 9 10 11 12 13 14 15 16 17 18 19 20 21 22 23 24 25 26 27
000
ASUS43 KEAX 290210
RWREAX

WEATHER ROUNDUP FOR EASTERN KANSAS AND NORTHWEST MISSOURI
NATIONAL WEATHER SERVICE KANSAS CITY/PLEASANT HILL MO
900 PM CDT THU JUL 28 2016

KSZ040-057-103>105-MOZ028-029-037-043-290300-
...KANSAS CITY METROPOLITAN AREA...

CITY           SKY/WX    TMP DP  RH WIND       PRES   REMARKS
K.C. INTL      PTCLDY    76  65  68 N6        29.96R
K.C. DOWNTOWN  CLEAR     82  65  56 N5        29.94R
LEES SUMMIT    CLEAR     81  66  60 NE7       29.95R
OLATHE - IXD   CLEAR     78  69  73 N8        29.96R
OLATHE - OJC   PTCLDY    81  67  62 N7        29.95R
LAWRENCE       CLEAR     78  69  73 N7        29.95R

$$

MOZ001>008-011>017-020>025-030>033-038>040-044>046-053-054-290300-
...NORTHERN AND CENTRAL MISSOURI...

CITY           SKY/WX    TMP DP  RH WIND       PRES   REMARKS
ST. JOSEPH     CLOUDY    74  67  78 NW7       29.97R
MOSBY          CLEAR     75  66  73 CALM      29.93R
WHITEMAN AFB   NOT AVBL
CLINTON        MOCLDY    77  73  88 CALM      29.93S
SEDALIA        CLEAR     78  72  81 CALM      29.95R
WARSAW         NOT AVBL
CHILLICOTHE      N/A     78  66  66 NE5       29.95S
KIRKSVILLE     CLEAR     70  64  81 CALM      29.96S

$$

MOZ041-047>049-056>058-063>065-088>090-097-290300-
...EASTERN AND SOUTHERN MISSOURI...

CITY           SKY/WX    TMP DP  RH WIND       PRES   REMARKS
ST. LOUIS INTL CLOUDY    83  70  64 NW6       29.90S
SPIRIT OF STL  MOCLDY    83  71  67 N6        29.88S
COLUMBIA       CLEAR     74  71  91 CALM      29.94R
JEFFERSON CITY CLEAR     74  70  87 CALM      29.92S
ROLLA          PTCLDY    73  69  87 CALM      29.93F
OSAGE BEACH    CLOUDY    76  73  91 E3        29.95R
SPRINGFIELD    MOCLDY    78  70  76 E3        29.94R
BRANSON        MOCLDY    77  72  83 CALM      29.96S
JOPLIN         PTCLDY    79  73  82 CALM      29.93R
WEST PLAINS    CLOUDY    72  68  87 CALM      29.96F

$$

IAZ060-094-KSZ022-034>040-054-083-096-NEZ052-066-093-290300-
...KANSAS...SOUTHEAST NEBRASKA AND IOWA...

CITY           SKY/WX    TMP DP  RH WIND       PRES   REMARKS
TOPEKA         PTCLDY    80  68  66 N8        29.97R
MANHATTAN      RAIN      70  69  97 SE7       30.02R
EMPORIA        CLOUDY    79  69  71 NW21G31   30.03R
CHANUTE        CLEAR     80  75  84 NW3       29.95R
WICHITA        TSTM      69  66  90 NE14      30.02F FOG
OMAHA          CLOUDY    76  63  64 NE9       29.98F
LINCOLN        CLOUDY    75  63  66 NE7       30.00S
FALLS CITY     MOCLDY    77  68  73 CALM      29.97R
LAMONI         CLEAR     71  65  81 N8        29.96F
DES MOINES     PTCLDY    74  62  66 N6        29.96F

$$





USA.gov is the U.S. government's official web portal to all federal, state and local government web resources and services.